Showing default

ICEYE-X36, 59103

Orbit data source: Space-Track

ICEYE-X36, 59103 is a payload satellite owned by ICEYE US (US) in SSO that was launched on Mon, 04 Mar 2024 UTC via an FALCON 9 launch vehicle from the Air Force Western Test Range (AFWTR). Payload-class satellites include a variety of spacecraft equipped with specific instruments for various scientific and technological missions. These include communications satellites like Starlink; space stations such as the ISS; scientific satellites like the Hubble; Earth observation satellites from companies like Planet Labs, Umbra, and HawkEye 360; GPS; miniature CubeSats for education and research; and military/defense satellites.

Loading next visibility...
Identifier
59103, 2024-043F
Orbit
SSO
Country
Flag of USUS
Related business
Manufacturer
ICEYE US
Mission
Operational Commercial Radar Imaging
Bus & Motor
ICEYE, Unknown motor
Mass
90 kg wet, 89 kg dry
Launch date (UTC)
2024-03-04 (2 years ago)
Launch vehicle
FALCON 9
Launch site
Air Force Western Test Range (AFWTR)
Object type
Payload
Rocket body
Debris
Shape & HBR
Box + 1 Pan, 1.6 m
Radar Cross Section
0.825 m², Medium (>0.1 m² and < 1m²)

Expand to show TLE details & history
Last TLE update: 9 hours ago

TLE from 9 hours ago
0 ICEYE-X36
1 59103U 24043F   26130.19712253  .00003506  00000-0  24115-3 0  9993
2 59103  97.8314 267.6193 0007177  91.5483 268.6566 15.06580416119420
Epoch: 2026-05-10T04:43Z
TLE epoch observation values (Epoch: 2026-05-10T04:43:51.386Z)
Latitude
-0.00001°
Longitude
-31.34847°
Altitude
549.838 km
Speed
7.587 km/s
True Right ascension
17h 50m 28s
True Declination
0° 00' 00"
Sunlit
Object was in full shadow at epoch
Visualization orbit readout
Latitude
Unknown
Longitude
Unknown
Altitude
Unknown
Speed
Unknown
Apparent Right ascension
Unknown
Apparent Declination
Unknown
Sunlit
N/A
Visualization observer readout
Local Sidereal Time
22:12:25
Azimuth
Unknown
Elevation
Unknown
Doppler factor
Unknown
Orbital elements
Apogee altitude
548.629 km
Perigee altitude
538.693 km
Semi-major axis
6,921.798 km
Eccentricity
0.00072
Inclination
97.8314°
RAAN
267.6193°
Arg. of periapsis
91.5483°
True anomaly
268.57438°
Mean anomaly
268.6566°
Eccentric anomaly
268.61549°
Mean motion
3.7689 °/min
Orbital period
95.52 mins
BSTAR
0.00024115
Loading maneuver chart data...
Computing Atmospheric mass density...
Loading historical data...
Loading historical data...
Loading historical data...
Loading historical data...
Loading historical data...
Loading historical data...
Loading historical data...

Documentation

Showing up to 5 results
|